Regional Weather Roundup
Issued by NWS

Home | Current Version | Previous Version | Text Only | Print | Product List | Glossary On
Versions: 1 2 3 4 5 6 7 8 9 10 11 12 13 14 15 16 17 18 19 20 21 22 23 24 25 26 27 28 29 30 31 32 33 34 35 36 37 38 39 40 41 42 43 44 45 46 47 48 49 50
000
ASUS43 KDTX 221710
RWRMI
MICHIGAN HOURLY REGIONAL WEATHER ROUNDUP
NATIONAL WEATHER SERVICE DETROIT/PONTIAC MI
1200 PM EST THU FEB 22 2018

NOTE: "FAIR" INDICATES FEW OR NO CLOUDS BELOW 12,000 FEET WITH NO
SIGNIFICANT WEATHER AND/OR OBSTRUCTION TO VISIBILITY.

MIZ047>049-052>055-059>063-066>070-074>076-081>083-221800-
SOUTHEAST LOWER MICHIGAN

CITY           SKY/WX    TMP DP  RH WIND       PRES   REMARKS
ADRIAN         CLOUDY    33  25  72 E15       30.62R WCI  23
ALMA           PTSUNNY   32  27  81 NE16      30.66F WCI  21
ANN ARBOR      FAIR      34  25  69 NE8       30.62R WCI  27
BAD AXE        FAIR      31  22  69 E12       30.68F WCI  22
CARO           FAIR      33  23  67 NE8       30.66F WCI  26
DETROIT CITY   CLOUDY    32  22  66 NE13      30.62F WCI  22
DETROIT        CLOUDY    36  25  64 N12       30.64R WCI  28
FLINT          PTSUNNY   31  23  72 E15       30.64S WCI  20
GROSSE ILE     CLOUDY    33  26  75 NE12      30.62F WCI  24
HILLSDALE      CLOUDY    34  25  69 E10       30.59R WCI  26
HOWELL         CLOUDY    32  25  75 E9        30.62S WCI  24

CITY           SKY/WX    TMP DP  RH WIND       PRES   REMARKS
JACKSON        CLOUDY    34  25  69 NE7       30.62R WCI  28
LAMBERTVILLE   CLOUDY    33  27  77 NE7G16    30.62R WCI  27
LANSING        FAIR      33  27  78 NE12      30.64R WCI  24
LAPEER         PTSUNNY   31  20  65 NE8       30.65F WCI  23
MASON          CLOUDY    33  24  69 E9        30.63R WCI  26
MONROE         CLOUDY    34  26  71 NE9G18    30.62S WCI  27
MT. CLEMENS    CLOUDY    31  24  74 NE12      30.63F WCI  22
PONTIAC        PTSUNNY   31  20  63 NE10      30.61F WCI  22
PORT HOPE        N/A     30  22  72 NE15      30.68F WCI  19
PORT HURON     CLOUDY    30  21  69 NE12      30.67F WCI  21
TRI CITIES     PTSUNNY   32  24  72 E14       30.67F WCI  22
MIDLAND        CLOUDY    32  25  74 E17       30.67F WCI  21
TROY           CLOUDY    32  22  66 NE13      30.65F WCI  23
SAGINAW HB     FAIR      32  27  80 NE12      30.67F WCI  23
$$
MIZ043>046-050>051-056>058-064>065-071>073-077>080-221800-
SOUTHWEST LOWER MICHIGAN

CITY           SKY/WX    TMP DP  RH WIND       PRES   REMARKS
BATTLE CREEK   CLOUDY    34  24  67 E12       30.59S WCI  25
BENTON HARBOR  FAIR      37  27  67 E13       30.56F WCI  29
BIG RAPIDS     PTSUNNY   32  22  68 E7        30.63R WCI  25
COLDWATER      CLOUDY    36  24  63 E9        30.60R WCI  29
FREMONT        PTSUNNY   34  20  57 E10       30.61F WCI  26
HOLLAND        FAIR      37  28  70 E13       30.60S WCI  29
GRAND RAPIDS   FAIR      36  28  73 E13       30.61S WCI  27
IONIA          FAIR      33  26  75 E10G16    30.62S WCI  25
KALAMAZOO      CLOUDY    36  25  64 E12G17    30.59S WCI  28
LUDINGTON      CLOUDY    32  26  77 E8        30.61F WCI  25
MARSHALL       CLOUDY    34  24  67 E7        30.61R WCI  27
MOUNT PLEASANT FAIR      34  24  66 NE12      30.64F WCI  25
MUSKEGON       CLOUDY    36  25  64 E12       30.61F WCI  28
SOUTH HAVEN    FAIR      37  27  66 E13G18    30.58S WCI  29
$$
MIZ016>042-221800-
NORTHERN LOWER MICHIGAN

CITY           SKY/WX    TMP DP  RH WIND       PRES   REMARKS
ALPENA         PTSUNNY   29  20  69 SE7       30.72S WCI  22
BEAVER ISLAND  PTSUNNY   28  20  71 E9        30.69F WCI  19
BELLAIRE       FAIR      30  23  77 SE7       30.67F WCI  23
CADILLAC       PTSUNNY   29  23  79 SE12      30.59F WCI  19
CHARLEVOIX     FAIR      27  19  72 E7        30.71S WCI  20
FRANKFORT      CLOUDY    31  22  69 NE5       30.64F WCI  26
GAYLORD        CLOUDY    26  20  77 E6        30.63F WCI  19
GRAYLING       CLOUDY    26  20  77 SE7       30.64F WCI  19
HARBOR SPRINGS PTSUNNY   28  20  71 E9        30.69F WCI  19
HOUGHTON LAKE  FAIR      30  21  69 E8        30.64F WCI  22
MANISTEE       PTSUNNY   32  24  72 E8        30.63F WCI  25
OSCODA         CLOUDY    30  19  64 NE9       30.71S WCI  21
PELLSTON       PTSUNNY   28  20  71 VRB7      30.70F WCI  21
ROGERS CITY    PTSUNNY   28  18  68 E8        30.73F WCI  19
TRAVERSE CITY  PTSUNNY   30  22  72 CALM      30.65F
$$
MIZ007>008-015-221800-
EASTERN UPPER MICHIGAN

CITY           SKY/WX    TMP DP  RH WIND       PRES   REMARKS
KINROSS        FAIR      27  18  69 S3        30.72F
MACKINAC ISLAN CLOUDY    28  19  71 E6        30.70F WCI  21
NEWBERRY       FAIR      23  16  74 SE3       30.68F
S. S. MARIE    FAIR      25  16  68 CALM      30.72F
MUNISING         N/A     27  16  63 SE8       30.69F WCI  19
$$
MIZ004>006-011>014-085-221800-
CENTRAL UPPER MICHIGAN

CITY           SKY/WX    TMP DP  RH WIND       PRES   REMARKS
MANISTIQUE     PTSUNNY   25  18  73 SE8       30.69F WCI  17
ESCANABA       PTSUNNY   26  18  71 E3        30.68F
MENOMINEE      CLOUDY    28  19  69 E10       30.67F WCI  19
SAWYER-GWINN   PTSUNNY   23  10  58 S6        30.64F WCI  16
$$
MIZ001>003-009>011-084-221800-
WESTERN UPPER MICHIGAN

CITY           SKY/WX    TMP DP  RH WIND       PRES   REMARKS
IRON MOUNTAIN  FAIR      24  11  57 SE7       30.62F WCI  16
HOUGHTON       FAIR      18   9  68 SE3       30.62F
COPPER HARBOR    N/A     24  12  60 VRB6      30.65F WCI  17
IRONWOOD       FAIR      25   8  48 E3        30.58F
$$

ABBREVIATIONS USED IN REMARKS
   TC - TEMPERATURE IN CELSIUS
  WCI - WIND CHILL INDEX
   HX - HEAT INDEX
  VSB - VISIBILITY




USA.gov is the U.S. government's official web portal to all federal, state and local government web resources and services.